TimeEDT,TemperatureF,Dew PointF,Humidity,Sea Level PressureIn,VisibilityMPH,Wind Direction,Wind SpeedMPH,Gust SpeedMPH,PrecipitationIn,Events,Conditions,WindDirDegrees,DateUTC
12:32 AM,73.4,71.6,94,29.94,7.0,Calm,Calm,-,N/A,,Mostly Cloudy,0,2013-08-08 04:32:00
12:53 AM,73.9,72.0,93,29.93,6.0,Calm,Calm,-,N/A,,Overcast,0,2013-08-08 04:53:00
1:31 AM,73.4,71.6,94,29.95,7.0,Calm,Calm,-,N/A,,Mostly Cloudy,0,2013-08-08 05:31:00
1:53 AM,75.0,72.0,90,29.93,7.0,Calm,Calm,-,N/A,,Scattered Clouds,0,2013-08-08 05:53:00
2:53 AM,73.0,71.1,93,29.93,5.0,Calm,Calm,-,N/A,,Clear,0,2013-08-08 06:53:00
3:53 AM,72.0,70.0,93,29.93,4.0,Calm,Calm,-,N/A,,Clear,0,2013-08-08 07:53:00
4:41 AM,69.8,69.8,100,29.94,2.5,Calm,Calm,-,N/A,,Scattered Clouds,0,2013-08-08 08:41:00
4:46 AM,69.8,69.8,100,29.94,3.0,Calm,Calm,-,N/A,,Mostly Cloudy,0,2013-08-08 08:46:00
4:53 AM,70.0,69.1,97,29.93,3.0,Calm,Calm,-,N/A,,Mostly Cloudy,0,2013-08-08 08:53:00
5:35 AM,69.8,68.0,94,29.94,3.0,Calm,Calm,-,N/A,,Partly Cloudy,0,2013-08-08 09:35:00
5:53 AM,70.0,69.1,97,29.91,2.5,Calm,Calm,-,N/A,,Clear,0,2013-08-08 09:53:00
6:06 AM,69.8,68.0,94,29.94,4.0,Calm,Calm,-,N/A,,Clear,0,2013-08-08 10:06:00
6:46 AM,69.8,66.2,88,29.94,2.5,Calm,Calm,-,N/A,,Clear,0,2013-08-08 10:46:00
6:53 AM,69.1,66.9,93,29.93,1.8,Calm,Calm,-,N/A,,Clear,0,2013-08-08 10:53:00
7:01 AM,69.8,68.0,94,29.94,1.5,Calm,Calm,-,N/A,,Clear,0,2013-08-08 11:01:00
7:05 AM,69.8,66.2,88,29.94,2.0,Calm,Calm,-,N/A,,Clear,0,2013-08-08 11:05:00
7:14 AM,69.8,68.0,94,29.95,3.0,Calm,Calm,-,N/A,,Clear,0,2013-08-08 11:14:00
7:21 AM,69.8,69.8,100,29.95,2.5,Calm,Calm,-,N/A,,Clear,0,2013-08-08 11:21:00
7:37 AM,69.8,69.8,100,29.95,3.0,Calm,Calm,-,N/A,,Mostly Cloudy,0,2013-08-08 11:37:00
7:53 AM,72.0,71.1,97,29.94,3.0,Calm,Calm,-,N/A,,Mostly Cloudy,0,2013-08-08 11:53:00
8:15 AM,73.4,71.6,94,29.95,4.0,Calm,Calm,-,N/A,,Overcast,0,2013-08-08 12:15:00
8:53 AM,75.0,72.0,90,29.94,5.0,Calm,Calm,-,N/A,,Mostly Cloudy,0,2013-08-08 12:53:00
9:15 AM,75.2,71.6,89,29.95,6.0,Variable,3.5,-,N/A,,Overcast,0,2013-08-08 13:15:00
9:53 AM,77.0,72.0,84,29.95,7.0,South,3.5,-,N/A,,Overcast,190,2013-08-08 13:53:00
10:42 AM,78.8,73.4,83,29.98,8.0,Calm,Calm,-,N/A,,Overcast,0,2013-08-08 14:42:00
10:53 AM,78.1,73.0,84,29.98,8.0,Calm,Calm,-,N/A,,Overcast,0,2013-08-08 14:53:00
11:03 AM,78.8,73.4,83,29.99,8.0,Calm,Calm,-,N/A,,Overcast,0,2013-08-08 15:03:00
11:10 AM,80.6,73.4,79,29.99,9.0,Calm,Calm,-,N/A,,Mostly Cloudy,0,2013-08-08 15:10:00
11:53 AM,82.0,73.0,74,29.96,10.0,Calm,Calm,-,0.00,,Overcast,0,2013-08-08 15:53:00
12:21 PM,82.4,73.4,74,29.97,9.0,Calm,Calm,-,N/A,,Scattered Clouds,0,2013-08-08 16:21:00
12:53 PM,84.0,73.0,69,29.94,10.0,SW,4.6,-,N/A,,Mostly Cloudy,230,2013-08-08 16:53:00
1:03 PM,86.0,73.4,66,29.95,10.0,Variable,4.6,-,N/A,Thunderstorm,Scattered Clouds,0,2013-08-08 17:03:00
1:53 PM,82.9,70.0,65,29.93,10.0,Variable,5.8,-,N/A,Thunderstorm,Clear,0,2013-08-08 17:53:00
2:13 PM,84.2,73.4,70,29.94,10.0,Variable,3.5,-,N/A,,Clear,0,2013-08-08 18:13:00
2:53 PM,84.9,73.0,67,29.92,10.0,Variable,4.6,-,N/A,,Clear,0,2013-08-08 18:53:00
3:53 PM,84.9,73.0,67,29.91,10.0,South,4.6,-,N/A,,Clear,190,2013-08-08 19:53:00
4:53 PM,84.9,73.0,67,29.89,10.0,Variable,4.6,-,N/A,,Scattered Clouds,0,2013-08-08 20:53:00
5:41 PM,84.2,73.4,70,29.91,10.0,Variable,4.6,-,0.00,Thunderstorm,Scattered Clouds,0,2013-08-08 21:41:00
5:53 PM,84.0,72.0,67,29.91,10.0,Variable,3.5,-,0.00,Thunderstorm,Mostly Cloudy,0,2013-08-08 21:53:00
6:10 PM,84.2,73.4,70,29.92,10.0,North,5.8,-,N/A,,Mostly Cloudy,350,2013-08-08 22:10:00
6:53 PM,78.1,72.0,81,29.91,10.0,NNE,6.9,-,N/A,,Mostly Cloudy,30,2013-08-08 22:53:00
7:03 PM,78.8,71.6,78,29.93,10.0,North,6.9,-,N/A,Thunderstorm,Overcast,360,2013-08-08 23:03:00
7:20 PM,77.0,73.4,89,29.94,2.0,Calm,Calm,-,0.04,Rain-Thunderstorm,Heavy Thunderstorms and Rain,0,2013-08-08 23:20:00
7:22 PM,77.0,73.4,89,29.94,1.5,Calm,Calm,-,0.06,Rain-Thunderstorm,Heavy Thunderstorms and Rain,0,2013-08-08 23:22:00
7:32 PM,75.2,71.6,89,29.93,1.8,Calm,Calm,-,0.12,Rain-Thunderstorm,Heavy Thunderstorms and Rain,0,2013-08-08 23:32:00
7:37 PM,75.2,73.4,94,29.93,3.0,East,3.5,-,0.12,Rain-Thunderstorm,Light Thunderstorms and Rain,100,2013-08-08 23:37:00
7:53 PM,75.0,73.0,94,29.92,8.0,Calm,Calm,-,0.13,Rain,Light Rain,0,2013-08-08 23:53:00
8:53 PM,73.9,73.0,97,29.91,6.0,Calm,Calm,-,0.02,,Mostly Cloudy,0,2013-08-09 00:53:00
9:53 PM,73.9,73.0,97,29.93,7.0,Calm,Calm,-,N/A,,Overcast,0,2013-08-09 01:53:00
10:53 PM,75.0,73.0,94,29.94,4.0,NNW,4.6,-,0.06,Rain-Thunderstorm,Thunderstorms and Rain,340,2013-08-09 02:53:00
11:02 PM,75.2,73.4,94,29.95,4.0,NNW,5.8,-,0.03,Rain,Heavy Rain,340,2013-08-09 03:02:00
11:15 PM,75.2,73.4,94,29.95,4.0,North,4.6,-,0.05,Rain-Thunderstorm,Rain,360,2013-08-09 03:15:00
11:53 PM,73.0,71.1,93,29.94,6.0,WNW,4.6,-,0.10,Rain-Thunderstorm,Light Thunderstorms and Rain,300,2013-08-09 03:53:00